Powrót do katalogu

STARLINK-34421

AktywnyŁącznośćVLEO
NORAD 64459·PAYLOAD·🇺🇸 United States

Wystrzelony Jun 18, 2025 z Cape Canaveral Space Force Station

Loading…

Następne Przeloty (najbliższe 24 godziny)

TLE

ŚwieżeSource: CelesTrak SupGP

Epoka: Sep 14, 2026, 20:47 UTC

1 64459C 25130X   26257.86645833  .00023980  00000+0  70866-3 0  2572
2 64459  53.1578 285.6917 0001233  81.1061 334.5812 15.34371658    13

Śledź STARLINK-34421 w czasie rzeczywistym z AllMySat

Download on the App Store